Dobrodošli na spletni strani vremenske postaje Senovo. Vse informacije so informativnega značaja, saj vremenska postaja ni del državne mreže meteoroloških postaj. AKTUALNIH OBVESTIL NI.


Posebna pozornost v zvezi z vremenskimi dogajanji ni potrebna.    Posebna pozornost v zvezi z vremenskimi dogajanji ni potrebna.

Pogled proti Armezu več informacij Pogled proti Armezu


Lisca več informacij Lisca


Radar strel več informacij blitzortung!


Radar padavin več informacij rain snow radar


Obiščite še:

Template documentation
and downloads

And another site



Weather Underground, zgodovina - Tekstovno

Dnevni povzetek za Januar 9, 2018 Enote:  Metrično    Angleško   Obe
« Predhodni Dan
Naslednji Dan »
Dnevni Tedenski Mesečni Letni Po meri
  Višja: Nižja: Povprečje:
Temperatura: -17.8 °C -15 °C -13.8 °C
Točka rosišča: -17.8 °C -15.4 °C -14.3 °C
Vlažnost: Humidity % 90 % 95 %
Hitrost vetra: 0 km/h 0 km/h 2.6 km/h
Sunki vetra: 0 km/h - -
Veter:- - SSE
Zračni tlak: 0 hPa 34476.3 hPa -
Padavine: 38.1 mm    
Historical Graphs
 
 
Tabelarni podarki za Januar 9, 2018
Čas Temperatura Točka rosišča Zračni tlak Veter Hitrost vetra Sunki vetra Vlažnost Intenziteta padavin (urna)
-17.8 °C -17.8 °C 0 hPa Calm     Humidity % 0 mm
00:00 -14.9 °C -15.1 °C 34703.1 hPa Calm     97 % 0 mm
00:01 -14.9 °C -15.1 °C 34703.1 hPa Calm     97 % 0 mm
00:03 -14.9 °C -15.1 °C 34703.1 hPa Calm     97 % 0 mm
00:05 -14.9 °C -15.1 °C 34703.1 hPa Calm     97 % 0 mm
00:06 -14.9 °C -15.1 °C 34703.1 hPa Calm     97 % 0 mm
00:08 -14.9 °C -15.1 °C 34703.1 hPa Calm     97 % 0 mm
00:10 -14.9 °C -15.1 °C 34703.1 hPa Calm     97 % 0 mm
00:12 -14.8 °C -15.1 °C 34669.3 hPa Calm     97 % 0 mm
00:13 -14.8 °C -15.1 °C 34669.3 hPa Calm     97 % 0 mm
00:14 -14.8 °C -15.1 °C 34669.3 hPa Calm     97 % 0 mm
00:19 -14.8 °C -15.1 °C 34669.3 hPa Calm     97 % 0 mm
00:20 -14.8 °C -15.1 °C 34669.3 hPa Calm     97 % 0 mm
00:21 -14.8 °C -15.1 °C 34669.3 hPa Calm     97 % 0 mm
00:22 -14.8 °C -15.1 °C 34669.3 hPa Calm     97 % 0 mm
00:27 -14.8 °C -15.1 °C 34703.1 hPa Calm     97 % 0 mm
00:31 -14.8 °C -15.1 °C 34703.1 hPa Calm     97 % 0 mm
00:36 -14.8 °C -15.1 °C 34703.1 hPa Calm     97 % 0 mm
00:37 -14.7 °C -14.9 °C 34703.1 hPa Calm     97 % 0 mm
00:38 -14.7 °C -14.9 °C 34703.1 hPa Calm     97 % 0 mm
00:39 -14.7 °C -14.9 °C 34703.1 hPa Calm     97 % 0 mm
00:42 -14.7 °C -14.9 °C 34703.1 hPa Calm     97 % 0 mm
00:47 -14.7 °C -14.9 °C 34669.3 hPa Calm     97 % 0 mm
00:49 -14.7 °C -14.9 °C 34669.3 hPa Calm     97 % 0 mm
00:51 -14.6 °C -14.8 °C 34669.3 hPa Calm   4.2 km/h 97 % 0 mm
00:52 -14.6 °C -14.8 °C 34669.3 hPa SW 0.3 km/h 5.1 km/h 97 % 0 mm
00:55 -14.6 °C -14.8 °C 34669.3 hPa SW 1.8 km/h 8 km/h 97 % 0 mm
00:57 -14.6 °C -14.8 °C 34669.3 hPa SW 2.6 km/h 8 km/h 98 % 0 mm
00:58 -14.6 °C -14.8 °C 34703.1 hPa SW 3.1 km/h 8 km/h 98 % 0 mm
01:02 -14.6 °C -14.7 °C 34703.1 hPa SW 3.7 km/h 8 km/h 98 % 0 mm
01:03 -14.6 °C -14.7 °C 34703.1 hPa SW 3.1 km/h 8 km/h 98 % 0 mm
01:07 -14.6 °C -14.7 °C 34703.1 hPa WSW 0.8 km/h 5.1 km/h 98 % 0 mm
01:10 -14.6 °C -14.7 °C 34703.1 hPa Calm     98 % 0 mm
01:12 -14.6 °C -14.7 °C 34703.1 hPa Calm     98 % 0 mm
01:13 -14.5 °C -14.7 °C 34703.1 hPa Calm     98 % 0 mm
01:14 -14.5 °C -14.7 °C 34703.1 hPa Calm     98 % 0 mm
01:16 -14.5 °C -14.7 °C 34703.1 hPa Calm     98 % 0 mm
01:19 -14.4 °C -14.7 °C 34703.1 hPa Calm     97 % 0 mm
01:22 -14.3 °C -14.6 °C 34703.1 hPa WNW 0.5 km/h 5.1 km/h 97 % 0 mm
01:24 -14.2 °C -14.5 °C 34703.1 hPa WNW 0.5 km/h 5.1 km/h 97 % 0 mm
01:25 -14.2 °C -14.5 °C 34703.1 hPa WNW 0.5 km/h 6.4 km/h 97 % 0 mm
01:26 -14.2 °C -14.5 °C 34703.1 hPa WNW 0.5 km/h 6.4 km/h 97 % 0 mm
01:27 -14.2 °C -14.4 °C 34703.1 hPa WNW 0.8 km/h 6.4 km/h 97 % 0 mm
01:28 -14.2 °C -14.4 °C 34703.1 hPa West 1 km/h 6.4 km/h 97 % 0 mm
01:31 -14.1 °C -14.2 °C 34703.1 hPa WSW 1.6 km/h 8 km/h 98 % 0 mm
01:32 -14.1 °C -14.2 °C 34703.1 hPa WSW 1.8 km/h 8 km/h 98 % 0 mm
01:33 -14.1 °C -14.2 °C 34703.1 hPa WSW 2.3 km/h 8 km/h 98 % 0 mm
01:34 -14 °C -14.2 °C 34703.1 hPa WSW 2.3 km/h 8 km/h 98 % 0 mm
01:35 -14 °C -14.2 °C 34703.1 hPa WSW 2.3 km/h 8 km/h 98 % 0 mm
01:38 -13.9 °C -14.1 °C 34703.1 hPa WSW 2.1 km/h 8 km/h 98 % 0 mm
01:39 -13.9 °C -14.1 °C 34703.1 hPa West 1.8 km/h 8 km/h 98 % 0 mm
01:41 -13.9 °C -14.1 °C 34703.1 hPa NNW 0.5 km/h 4.2 km/h 98 % 0 mm
01:45 -13.9 °C -14.1 °C 34669.3 hPa NNE 0.3 km/h 16.9 km/h 97 % 0 mm
01:47 -13.8 °C -14.1 °C 34669.3 hPa ENE 2.1 km/h 16.9 km/h 97 % 0 mm
01:49 -13.8 °C -14.1 °C 34669.3 hPa ENE 2.3 km/h 16.9 km/h 97 % 0 mm
01:52 -13.7 °C -14 °C 34669.3 hPa ENE 2.6 km/h 16.9 km/h 97 % 0 mm
01:53 -13.7 °C -14 °C 34669.3 hPa ENE 2.6 km/h 16.9 km/h 97 % 0 mm
01:54 -13.7 °C -14 °C 34669.3 hPa ENE 2.6 km/h 16.9 km/h 97 % 0 mm
01:57 -13.7 °C -13.8 °C 34669.3 hPa NE 3.1 km/h 10.3 km/h 98 % 0 mm
01:58 -13.7 °C -13.8 °C 34703.1 hPa NE 3.1 km/h 10.3 km/h 98 % 0 mm
02:00 -13.7 °C -13.8 °C 34703.1 hPa NE 3.9 km/h 10.3 km/h 98 % 0 mm
02:02 -13.6 °C -13.8 °C 34703.1 hPa NE 5.1 km/h 14.5 km/h 98 % 0 mm
02:03 -13.6 °C -13.8 °C 34703.1 hPa NE 6 km/h 14.5 km/h 98 % 0 mm
02:04 -13.6 °C -13.7 °C 34703.1 hPa NE 6.8 km/h 14.5 km/h 98 % 0 mm
02:05 -13.5 °C -13.7 °C 34703.1 hPa NE 6.8 km/h 14.5 km/h 98 % 0 mm
02:06 -13.5 °C -13.7 °C 34703.1 hPa ENE 6.9 km/h 14.5 km/h 98 % 0 mm
02:07 -13.5 °C -13.7 °C 34703.1 hPa ENE 7.2 km/h 15.6 km/h 98 % 0 mm
02:08 -13.5 °C -13.7 °C 34703.1 hPa ENE 7.6 km/h 15.6 km/h 98 % 0 mm
02:12 -13.4 °C -13.6 °C 34703.1 hPa NE 8.9 km/h 15.6 km/h 98 % 0 mm
02:14 -13.4 °C -13.6 °C 34703.1 hPa ENE 8.5 km/h 15.6 km/h 98 % 0 mm
02:16 -13.4 °C -13.6 °C 34703.1 hPa NE 8.2 km/h 16.9 km/h 98 % 0 mm
02:17 -13.4 °C -13.6 °C 34703.1 hPa ENE 8 km/h 16.9 km/h 98 % 0 mm
02:23 -13.4 °C -13.6 °C 34703.1 hPa ENE 6.8 km/h 16.9 km/h 98 % 0 mm
02:24 -13.4 °C -13.6 °C 34703.1 hPa East 6.4 km/h 16.9 km/h 98 % 0 mm
02:26 -13.4 °C -13.6 °C 34703.1 hPa East 5.5 km/h 12.2 km/h 98 % 0 mm
02:27 -13.4 °C -13.6 °C 34703.1 hPa East 5 km/h 10.3 km/h 98 % 0 mm
02:28 -13.4 °C -13.6 °C 34703.1 hPa East 4.3 km/h 9.8 km/h 98 % 0 mm
02:33 -13.4 °C -13.6 °C 34703.1 hPa ENE 5 km/h 15 km/h 98 % 0 mm
02:34 -13.4 °C -13.6 °C 34703.1 hPa ENE 5.1 km/h 15 km/h 98 % 0 mm
02:35 -13.3 °C -13.6 °C 34703.1 hPa ENE 5.5 km/h 15 km/h 97 % 0 mm
02:36 -13.3 °C -13.6 °C 34703.1 hPa ENE 6.3 km/h 15 km/h 97 % 0 mm
02:37 -13.3 °C -13.6 °C 34703.1 hPa ENE 6.9 km/h 15 km/h 97 % 0 mm
02:38 -13.3 °C -13.6 °C 34703.1 hPa ENE 6.9 km/h 15 km/h 97 % 0 mm
02:42 -13.3 °C -13.6 °C 34703.1 hPa ENE 8.2 km/h 15 km/h 97 % 0 mm
02:45 -13.4 °C -13.6 °C 34703.1 hPa ENE 7.7 km/h 15 km/h 98 % 0 mm
02:46 -13.4 °C -13.6 °C 34703.1 hPa ENE 8 km/h 15 km/h 98 % 0 mm
02:47 -13.4 °C -13.6 °C 34703.1 hPa ENE 7.7 km/h 15 km/h 98 % 0 mm
02:48 -13.4 °C -13.6 °C 34703.1 hPa ENE 8 km/h 15 km/h 98 % 0 mm
02:49 -13.4 °C -13.7 °C 34703.1 hPa ENE 8.2 km/h 15 km/h 97 % 0 mm
02:50 -13.4 °C -13.7 °C 34703.1 hPa ENE 8.2 km/h 15 km/h 97 % 0 mm
02:53 -13.4 °C -13.7 °C 34703.1 hPa NE 6.4 km/h 11.1 km/h 97 % 0 mm
02:59 -13.4 °C -13.7 °C 34703.1 hPa NE 4.3 km/h 9.8 km/h 97 % 0 mm
03:00 -13.4 °C -13.7 °C 34703.1 hPa NNE 3.1 km/h 9.8 km/h 97 % 0 mm
03:01 -13.4 °C -13.7 °C 34703.1 hPa NNE 2.6 km/h 9.8 km/h 97 % 0 mm
03:09 -13.4 °C -13.7 °C 34703.1 hPa NE 3.1 km/h 9.3 km/h 97 % 0 mm
03:10 -13.4 °C -13.7 °C 34703.1 hPa NE 3.7 km/h 9.3 km/h 97 % 0 mm
03:11 -13.4 °C -13.7 °C 34703.1 hPa NE 3.7 km/h 9.3 km/h 97 % 0 mm
03:13 -13.4 °C -13.7 °C 34703.1 hPa NNE 3.9 km/h 9.3 km/h 97 % 0 mm
03:19 -13.4 °C -13.7 °C 34703.1 hPa NNE 6 km/h 12.2 km/h 97 % 0 mm
03:21 -13.5 °C -13.7 °C 34703.1 hPa NNE 6 km/h 12.2 km/h 97 % 0 mm
03:23 -13.5 °C -13.7 °C 34703.1 hPa NNE 5.5 km/h 11.1 km/h 97 % 0 mm
03:24 -13.5 °C -13.7 °C 34703.1 hPa NNE 4.3 km/h 11.1 km/h 97 % 0 mm
03:25 -13.5 °C -13.7 °C 34703.1 hPa NNE 4.3 km/h 11.1 km/h 97 % 0 mm
03:26 -13.5 °C -13.7 °C 34703.1 hPa NNE 4.2 km/h 11.1 km/h 97 % 0 mm
03:27 -13.5 °C -13.7 °C 34669.3 hPa NNE 3.9 km/h 11.1 km/h 97 % 0 mm
03:28 -13.6 °C -13.8 °C 34669.3 hPa NNE 3.9 km/h 11.1 km/h 97 % 0 mm
03:29 -13.6 °C -13.8 °C 34669.3 hPa NNE 4.2 km/h 11.1 km/h 97 % 0 mm
03:30 -13.6 °C -13.8 °C 34669.3 hPa NNE 4.2 km/h 11.1 km/h 97 % 0 mm
03:31 -13.6 °C -13.8 °C 34669.3 hPa NNE 4.2 km/h 11.1 km/h 97 % 0 mm
03:33 -13.6 °C -13.8 °C 34669.3 hPa NE 3.9 km/h 9.3 km/h 97 % 0 mm
03:35 -13.6 °C -13.8 °C 34669.3 hPa NE 4.7 km/h 9.3 km/h 97 % 0 mm
03:36 -13.6 °C -13.8 °C 34669.3 hPa NE 4.2 km/h 9.3 km/h 97 % 0 mm
03:37 -13.6 °C -13.8 °C 34669.3 hPa NE 3.9 km/h 9.3 km/h 97 % 0 mm
03:38 -13.6 °C -13.8 °C 34669.3 hPa NE 3.4 km/h 9.3 km/h 97 % 0 mm
03:39 -13.6 °C -13.8 °C 34669.3 hPa NNE 3.1 km/h 9.3 km/h 97 % 0 mm
03:40 -13.6 °C -13.8 °C 34669.3 hPa NNE 2.9 km/h 9.3 km/h 97 % 0 mm
03:41 -13.6 °C -13.8 °C 34669.3 hPa NNE 3.4 km/h 9.3 km/h 97 % 0 mm
03:42 -13.6 °C -13.8 °C 34703.1 hPa North 3.7 km/h 9.3 km/h 97 % 0 mm
03:43 -13.6 °C -13.8 °C 34703.1 hPa NNW 3.7 km/h 8 km/h 97 % 0 mm
03:44 -13.6 °C -13.8 °C 34703.1 hPa NNW 3.4 km/h 8 km/h 97 % 0 mm
03:45 -13.5 °C -13.7 °C 34703.1 hPa NNW 2.6 km/h 8 km/h 97 % 0 mm
03:46 -13.5 °C -13.7 °C 34703.1 hPa NNW 2.6 km/h 8 km/h 97 % 0 mm
03:50 -13.5 °C -13.7 °C 34703.1 hPa NNE 3.9 km/h 9.3 km/h 97 % 0 mm
03:54 -13.6 °C -13.8 °C 34703.1 hPa NNE 4.3 km/h 10.3 km/h 97 % 0 mm
03:55 -13.5 °C -13.7 °C 34703.1 hPa NNE 5.5 km/h 10.3 km/h 97 % 0 mm
03:56 -13.5 °C -13.7 °C 34703.1 hPa NE 6.4 km/h 10.3 km/h 97 % 0 mm
03:57 -13.5 °C -13.7 °C 34669.3 hPa NE 6.4 km/h 10.3 km/h 97 % 0 mm
03:58 -13.5 °C -13.7 °C 34669.3 hPa NE 6 km/h 10.3 km/h 97 % 0 mm
03:59 -13.5 °C -13.7 °C 34669.3 hPa NE 5.6 km/h 10.3 km/h 97 % 0 mm
04:00 -13.6 °C -13.8 °C 34669.3 hPa NNE 5.1 km/h 10.3 km/h 97 % 0 mm
04:01 -13.6 °C -13.8 °C 34669.3 hPa NNE 5 km/h 9.8 km/h 97 % 0 mm
04:02 -13.6 °C -13.8 °C 34669.3 hPa NNE 4.3 km/h 9.3 km/h 97 % 0 mm
04:03 -13.6 °C -13.8 °C 34669.3 hPa NNE 4.2 km/h 9.3 km/h 97 % 0 mm
04:04 -13.6 °C -13.8 °C 34669.3 hPa NNE 3.9 km/h 9.3 km/h 97 % 0 mm
04:05 -13.6 °C -13.8 °C 34669.3 hPa North 3.7 km/h 9.3 km/h 97 % 0 mm
04:06 -13.6 °C -13.8 °C 34669.3 hPa NNW 2.9 km/h 6.4 km/h 97 % 0 mm
04:07 -13.6 °C -13.8 °C 34669.3 hPa NNW 2.6 km/h 6.4 km/h 97 % 0 mm
04:08 -13.6 °C -13.8 °C 34669.3 hPa NNW 2.6 km/h 6.4 km/h 97 % 0 mm
04:09 -13.6 °C -13.8 °C 34669.3 hPa NNW 2.9 km/h 6.4 km/h 97 % 0 mm
04:10 -13.6 °C -13.9 °C 34669.3 hPa NNW 3.1 km/h 6.9 km/h 96 % 0 mm
04:11 -13.7 °C -14 °C 34669.3 hPa NNW 3.4 km/h 6.9 km/h 96 % 0 mm
04:12 -13.7 °C -14 °C 34703.1 hPa NNW 3.1 km/h 6.9 km/h 96 % 0 mm
04:13 -13.7 °C -14 °C 34703.1 hPa NNW 2.9 km/h 6.9 km/h 96 % 0 mm
04:14 -13.7 °C -14 °C 34703.1 hPa NNW 2.9 km/h 6.9 km/h 96 % 0 mm
04:15 -13.7 °C -14.1 °C 34703.1 hPa NW 2.1 km/h 6.9 km/h 96 % 0 mm
04:16 -13.7 °C -14.1 °C 34703.1 hPa NW 1.6 km/h 6.9 km/h 96 % 0 mm
04:17 -13.8 °C -14.1 °C 34703.1 hPa NW 1.3 km/h 6.9 km/h 96 % 0 mm
04:19 -13.8 °C -14.1 °C 34703.1 hPa NW 1 km/h 6.9 km/h 96 % 0 mm
04:20 -13.8 °C -14.1 °C 34703.1 hPa NNW 0.8 km/h 5.6 km/h 96 % 0 mm
04:21 -13.8 °C -14.2 °C 34703.1 hPa NW 0.8 km/h 5.6 km/h 96 % 0 mm
04:22 -13.8 °C -14.2 °C 34703.1 hPa NW 1 km/h 5.6 km/h 96 % 0 mm
04:23 -13.9 °C -14.2 °C 34703.1 hPa NW 1.3 km/h 5.6 km/h 96 % 0 mm
04:24 -13.9 °C -14.2 °C 34703.1 hPa NW 1.3 km/h 5.6 km/h 96 % 0 mm
04:25 -13.9 °C -14.2 °C 34703.1 hPa NW 1.3 km/h 5.6 km/h 96 % 0 mm
04:26 -13.9 °C -14.2 °C 34703.1 hPa WNW 1.3 km/h 5.6 km/h 96 % 0 mm
04:27 -13.9 °C -14.2 °C 34703.1 hPa WNW 1.6 km/h 5.6 km/h 96 % 0 mm
04:28 -13.9 °C -14.2 °C 34703.1 hPa West 1.8 km/h 6.4 km/h 96 % 0 mm
04:29 -13.9 °C -14.2 °C 34703.1 hPa West 2.3 km/h 6.4 km/h 96 % 0 mm
04:31 -13.9 °C -14.3 °C 34703.1 hPa WSW 1.8 km/h 7.6 km/h 96 % 0 mm
04:32 -13.9 °C -14.3 °C 34703.1 hPa WSW 2.1 km/h 7.6 km/h 96 % 0 mm
04:33 -13.9 °C -14.3 °C 34703.1 hPa WSW 1.8 km/h 7.6 km/h 96 % 0 mm
04:34 -13.9 °C -14.3 °C 34703.1 hPa WSW 1.8 km/h 7.6 km/h 96 % 0 mm
04:35 -13.9 °C -14.3 °C 34703.1 hPa WSW 1.8 km/h 7.6 km/h 96 % 0 mm
04:36 -13.9 °C -14.3 °C 34703.1 hPa WSW 2.1 km/h 7.6 km/h 96 % 0 mm
04:37 -13.9 °C -14.3 °C 34703.1 hPa WNW 1.8 km/h 7.6 km/h 96 % 0 mm
04:41 -14 °C -14.3 °C 34703.1 hPa North 2.6 km/h 10.3 km/h 96 % 0 mm
04:42 -14 °C -14.3 °C 34703.1 hPa North 2.6 km/h 10.3 km/h 96 % 0 mm
04:43 -14 °C -14.3 °C 34669.3 hPa NNE 3.4 km/h 10.3 km/h 96 % 0 mm
04:44 -13.9 °C -14.3 °C 34669.3 hPa NNE 4.3 km/h 10.3 km/h 96 % 0 mm
04:46 -13.9 °C -14.3 °C 34669.3 hPa NNE 4.7 km/h 10.3 km/h 96 % 0 mm
04:48 -13.9 °C -14.2 °C 34669.3 hPa NE 5.1 km/h 10.3 km/h 96 % 0 mm
04:53 -13.9 °C -14.2 °C 34669.3 hPa NNE 3.9 km/h 10.3 km/h 96 % 0 mm
04:54 -13.9 °C -14.3 °C 34669.3 hPa North 3.4 km/h 7.6 km/h 96 % 0 mm
04:57 -13.9 °C -14.3 °C 34669.3 hPa NNW 3.4 km/h 8 km/h 96 % 0 mm
04:59 -13.9 °C -14.3 °C 34669.3 hPa NW 3.4 km/h 8 km/h 96 % 0 mm
05:01 -14 °C -14.3 °C 34669.3 hPa NW 3.1 km/h 8 km/h 96 % 0 mm
05:03 -14 °C -14.3 °C 34669.3 hPa NW 3.7 km/h 8 km/h 96 % 0 mm
05:04 -14 °C -14.3 °C 34669.3 hPa WNW 3.7 km/h 8.9 km/h 96 % 0 mm
05:05 -14 °C -14.3 °C 34669.3 hPa WNW 3.7 km/h 8.9 km/h 96 % 0 mm
05:06 -14 °C -14.3 °C 34669.3 hPa NW 3.7 km/h 8.9 km/h 96 % 0 mm
05:08 -14 °C -14.3 °C 34669.3 hPa WNW 4.7 km/h 11.1 km/h 96 % 0 mm
05:09 -14 °C -14.3 °C 34669.3 hPa WNW 4.7 km/h 11.1 km/h 96 % 0 mm
05:12 -14 °C -14.3 °C 34669.3 hPa WNW 4.7 km/h 11.1 km/h 96 % 0 mm
05:13 -14 °C -14.3 °C 34669.3 hPa WNW 4.2 km/h 11.1 km/h 96 % 0 mm
05:14 -14 °C -14.3 °C 34669.3 hPa WNW 3.7 km/h 11.1 km/h 96 % 0 mm
05:15 -14 °C -14.3 °C 34669.3 hPa WNW 3.7 km/h 11.1 km/h 96 % 0 mm
05:16 -14.1 °C -14.4 °C 34669.3 hPa WNW 2.9 km/h 11.1 km/h 96 % 0 mm
05:18 -14.1 °C -14.4 °C 34669.3 hPa West 1.8 km/h 5.1 km/h 96 % 0 mm
05:19 -14.1 °C -14.4 °C 34669.3 hPa West 1.3 km/h 5.1 km/h 96 % 0 mm
05:20 -14.1 °C -14.4 °C 34669.3 hPa SW 1 km/h 5.1 km/h 96 % 0 mm
05:21 -14.1 °C -14.4 °C 34669.3 hPa SW 0.8 km/h 6.4 km/h 96 % 0 mm
05:24 -14.2 °C -14.5 °C 34669.3 hPa NW 1.6 km/h 6.4 km/h 96 % 0 mm
05:25 -14.2 °C -14.6 °C 34669.3 hPa NW 1.8 km/h 6.4 km/h 96 % 0 mm
05:28 -14.2 °C -14.6 °C 34669.3 hPa NW 3.9 km/h 8 km/h 95 % 0 mm
05:30 -14.3 °C -14.7 °C 34669.3 hPa NW 4.3 km/h 8 km/h 95 % 0 mm
05:31 -14.3 °C -14.7 °C 34669.3 hPa NW 4.7 km/h 8 km/h 95 % 0 mm
05:32 -14.3 °C -14.7 °C 34669.3 hPa NW 5 km/h 8 km/h 95 % 0 mm
05:33 -14.3 °C -14.7 °C 34669.3 hPa NW 4.7 km/h 8 km/h 95 % 0 mm
05:35 -14.3 °C -14.7 °C 34669.3 hPa NW 3.9 km/h 8 km/h 95 % 0 mm
05:39 -14.4 °C -14.8 °C 34669.3 hPa WNW 1.6 km/h 6.4 km/h 95 % 0 mm
05:40 -14.4 °C -14.8 °C 34669.3 hPa WNW 1.6 km/h 6.4 km/h 95 % 0 mm
05:41 -14.4 °C -14.8 °C 34669.3 hPa WNW 1 km/h 5.6 km/h 95 % 0 mm
05:42 -14.4 °C -14.8 °C 34669.3 hPa WNW 0.5 km/h 5.1 km/h 95 % 0 mm
05:43 -14.4 °C -14.8 °C 34669.3 hPa WNW 0.5 km/h 5.1 km/h 95 % 0 mm
05:44 -14.4 °C -14.8 °C 34669.3 hPa WNW 0.5 km/h 5.1 km/h 95 % 0 mm
05:46 -14.4 °C -14.8 °C 34669.3 hPa NW 1 km/h 7.6 km/h 95 % 0 mm
05:47 -14.4 °C -14.8 °C 34669.3 hPa NW 1.3 km/h 7.6 km/h 95 % 0 mm
05:49 -14.4 °C -14.8 °C 34669.3 hPa NW 2.1 km/h 7.6 km/h 95 % 0 mm
05:50 -14.4 °C -14.8 °C 34669.3 hPa NW 2.3 km/h 7.6 km/h 95 % 0 mm
05:51 -14.4 °C -14.8 °C 34669.3 hPa NW 2.3 km/h 7.6 km/h 95 % 0 mm
05:52 -14.4 °C -14.8 °C 34669.3 hPa NW 2.3 km/h 7.6 km/h 95 % 0 mm
05:53 -14.4 °C -14.8 °C 34669.3 hPa NW 2.3 km/h 7.6 km/h 95 % 0 mm
05:54 -14.4 °C -14.8 °C 34669.3 hPa NW 2.6 km/h 7.6 km/h 95 % 0 mm
05:55 -14.4 °C -14.8 °C 34669.3 hPa NW 3.4 km/h 8 km/h 95 % 0 mm
05:56 -14.4 °C -14.8 °C 34669.3 hPa NW 3.7 km/h 8 km/h 95 % 0 mm
05:59 -14.4 °C -14.8 °C 34669.3 hPa NW 3.9 km/h 8.9 km/h 95 % 0 mm
06:00 -14.4 °C -14.8 °C 34669.3 hPa WNW 4.3 km/h 8.9 km/h 95 % 0 mm
06:01 -14.4 °C -14.8 °C 34669.3 hPa WNW 4.3 km/h 8.9 km/h 95 % 0 mm
06:02 -14.4 °C -14.8 °C 34669.3 hPa NW 4.2 km/h 8.9 km/h 95 % 0 mm
06:03 -14.4 °C -14.8 °C 34669.3 hPa NW 4.7 km/h 9.3 km/h 95 % 0 mm
06:05 -14.4 °C -14.8 °C 34669.3 hPa NW 4.2 km/h 9.3 km/h 95 % 0 mm
06:08 -14.5 °C -14.9 °C 34669.3 hPa NW 3.1 km/h 9.3 km/h 95 % 0 mm
06:09 -14.5 °C -14.9 °C 34669.3 hPa NNW 2.3 km/h 9.3 km/h 95 % 0 mm
06:11 -14.6 °C -14.9 °C 34669.3 hPa NNW 1.8 km/h 9.3 km/h 95 % 0 mm
06:13 -14.6 °C -14.9 °C 34669.3 hPa WNW 1.8 km/h 6.9 km/h 95 % 0 mm
06:18 -14.6 °C -14.9 °C 34669.3 hPa NW 2.1 km/h 6.9 km/h 95 % 0 mm
06:19 -14.6 °C -14.9 °C 34669.3 hPa NW 2.1 km/h 6.9 km/h 95 % 0 mm
06:21 -14.6 °C -14.9 °C 34669.3 hPa NW 2.3 km/h 6.9 km/h 95 % 0 mm
06:22 -14.6 °C -14.9 °C 34669.3 hPa NW 2.3 km/h 6.9 km/h 95 % 0 mm
06:24 -14.6 °C -15.1 °C 34669.3 hPa NW 2.3 km/h 6.4 km/h 95 % 0 mm
06:26 -14.6 °C -15.1 °C 34669.3 hPa WNW 1.3 km/h 6.4 km/h 95 % 0 mm
06:27 -14.6 °C -15.1 °C 34669.3 hPa WNW 1.3 km/h 6.4 km/h 95 % 0 mm
06:28 -14.6 °C -15.1 °C 34669.3 hPa WNW 1.3 km/h 6.4 km/h 95 % 0 mm
06:29 -14.6 °C -15.1 °C 34669.3 hPa WNW 1.3 km/h 6.4 km/h 95 % 0 mm
06:30 -14.7 °C -15.1 °C 34669.3 hPa WNW 0.8 km/h 6.4 km/h 95 % 0 mm
06:31 -14.7 °C -15.1 °C 34669.3 hPa WNW 0.5 km/h 6.4 km/h 95 % 0 mm
06:33 -14.7 °C -15.1 °C 34669.3 hPa Calm   2.3 km/h 95 % 0 mm
06:34 -14.7 °C -15.1 °C 34669.3 hPa Calm   2.3 km/h 95 % 0 mm
06:36 -14.7 °C -15.1 °C 34669.3 hPa Calm   2.3 km/h 95 % 0 mm
06:37 -14.7 °C -15.1 °C 34669.3 hPa Calm     95 % 0 mm
06:38 -14.7 °C -15.1 °C 34669.3 hPa Calm     95 % 0 mm
06:40 -14.7 °C -15.1 °C 34669.3 hPa Calm     95 % 0 mm
06:41 -14.7 °C -15.1 °C 34669.3 hPa Calm     95 % 0 mm
06:42 -14.7 °C -15.1 °C 34669.3 hPa Calm     95 % 0 mm
06:43 -14.8 °C -15.2 °C 34669.3 hPa Calm   3.4 km/h 95 % 0 mm
06:44 -14.8 °C -15.2 °C 34669.3 hPa Calm   3.4 km/h 95 % 0 mm
06:46 -14.8 °C -15.2 °C 34669.3 hPa Calm   5.1 km/h 95 % 0 mm
06:47 -14.8 °C -15.2 °C 34669.3 hPa West 0.3 km/h 5.1 km/h 95 % 0 mm
06:49 -14.8 °C -15.2 °C 34669.3 hPa West 0.5 km/h 5.1 km/h 95 % 0 mm
06:50 -14.8 °C -15.2 °C 34669.3 hPa West 0.5 km/h 5.1 km/h 95 % 0 mm
06:51 -14.8 °C -15.2 °C 34669.3 hPa West 0.5 km/h 5.1 km/h 95 % 0 mm
06:52 -14.8 °C -15.2 °C 34669.3 hPa West 0.5 km/h 5.6 km/h 95 % 0 mm
06:53 -14.8 °C -15.2 °C 34669.3 hPa West 0.5 km/h 5.6 km/h 95 % 0 mm
06:54 -14.8 °C -15.2 °C 34669.3 hPa West 1 km/h 5.6 km/h 95 % 0 mm
06:56 -14.8 °C -15.2 °C 34669.3 hPa West 1 km/h 5.6 km/h 95 % 0 mm
06:57 -14.8 °C -15.2 °C 34703.1 hPa WSW 0.8 km/h 5.6 km/h 95 % 0 mm
06:58 -14.8 °C -15.2 °C 34703.1 hPa West 0.5 km/h 5.6 km/h 95 % 0 mm
06:59 -14.8 °C -15.2 °C 34703.1 hPa West 0.5 km/h 5.6 km/h 95 % 0 mm
07:00 -14.8 °C -15.2 °C 34703.1 hPa West 0.5 km/h 5.6 km/h 95 % 0 mm
07:01 -14.8 °C -15.2 °C 34703.1 hPa West 0.5 km/h 5.6 km/h 95 % 0 mm
07:02 -14.8 °C -15.2 °C 34703.1 hPa West 0.5 km/h 5.6 km/h 95 % 0 mm
07:04 -14.8 °C -15.2 °C 34703.1 hPa WNW 0.3 km/h 4.2 km/h 95 % 0 mm
07:05 -14.8 °C -15.2 °C 34703.1 hPa WNW 0.5 km/h 4.2 km/h 95 % 0 mm
07:06 -14.8 °C -15.2 °C 34703.1 hPa WNW 0.5 km/h 4.2 km/h 95 % 0 mm
07:07 -14.8 °C -15.2 °C 34703.1 hPa WNW 0.5 km/h 4.2 km/h 95 % 0 mm
07:08 -14.8 °C -15.2 °C 34703.1 hPa WNW 0.5 km/h 4.2 km/h 95 % 0 mm
07:12 -14.9 °C -15.3 °C 34703.1 hPa WNW 0.5 km/h 4.2 km/h 95 % 0 mm
07:13 -14.9 °C -15.3 °C 34703.1 hPa WNW 0.5 km/h 4.2 km/h 95 % 0 mm
07:14 -14.9 °C -15.3 °C 34703.1 hPa North 0.3 km/h   95 % 0 mm
07:15 -14.9 °C -15.3 °C 34703.1 hPa Calm     95 % 0 mm
07:16 -14.9 °C -15.3 °C 34703.1 hPa Calm     95 % 0 mm
07:18 -14.9 °C -15.3 °C 34703.1 hPa Calm     95 % 0 mm
07:20 -14.9 °C -15.3 °C 34703.1 hPa Calm     95 % 0 mm
07:21 -14.9 °C -15.3 °C 34703.1 hPa Calm     95 % 0 mm
07:23 -14.9 °C -15.3 °C 34703.1 hPa Calm     95 % 0 mm
07:24 -14.9 °C -15.3 °C 34703.1 hPa Calm     95 % 0 mm
07:27 -14.9 °C -15.3 °C 34669.3 hPa Calm     95 % 0 mm
07:29 -14.9 °C -15.3 °C 34669.3 hPa Calm     95 % 0 mm
07:30 -14.9 °C -15.3 °C 34669.3 hPa Calm     95 % 0 mm
07:32 -14.9 °C -15.3 °C 34669.3 hPa Calm     95 % 0 mm
07:33 -14.9 °C -15.3 °C 34669.3 hPa Calm     95 % 0 mm
07:34 -14.9 °C -15.3 °C 34669.3 hPa Calm     95 % 0 mm
07:35 -14.9 °C -15.3 °C 34669.3 hPa Calm     95 % 0 mm
07:37 -14.9 °C -15.3 °C 34669.3 hPa Calm     95 % 0 mm
07:39 -14.9 °C -15.3 °C 34669.3 hPa Calm     95 % 0 mm
07:40 -15 °C -15.4 °C 34669.3 hPa Calm     95 % 0 mm
07:41 -15 °C -15.4 °C 34669.3 hPa Calm     95 % 0 mm
07:43 -15 °C -15.4 °C 34669.3 hPa Calm     95 % 0 mm
07:44 -15 °C -15.4 °C 34669.3 hPa Calm     95 % 0 mm
07:45 -15 °C -15.4 °C 34669.3 hPa Calm     95 % 0 mm
07:46 -15 °C -15.4 °C 34669.3 hPa Calm   2.9 km/h 95 % 0 mm
07:48 -15 °C -15.4 °C 34669.3 hPa Calm   2.9 km/h 95 % 0 mm
07:49 -15 °C -15.4 °C 34669.3 hPa Calm   2.9 km/h 95 % 0 mm
07:50 -15 °C -15.4 °C 34669.3 hPa Calm   2.9 km/h 95 % 0 mm
07:51 -15 °C -15.4 °C 34669.3 hPa Calm   2.9 km/h 95 % 0 mm
07:53 -15 °C -15.4 °C 34669.3 hPa Calm   2.9 km/h 95 % 0 mm
07:55 -15 °C -15.4 °C 34669.3 hPa Calm   2.9 km/h 95 % 0 mm
07:56 -15 °C -15.4 °C 34669.3 hPa WNW 0.3 km/h 6.4 km/h 95 % 0 mm
07:57 -15 °C -15.4 °C 34669.3 hPa WNW 0.3 km/h 6.4 km/h 95 % 0 mm
07:58 -15 °C -15.4 °C 34669.3 hPa WNW 0.8 km/h 6.4 km/h 95 % 0 mm
08:00 -15 °C -15.4 °C 34669.3 hPa WNW 0.8 km/h 6.4 km/h 95 % 0 mm
08:01 -15 °C -15.4 °C 34669.3 hPa WNW 0.8 km/h 6.4 km/h 95 % 0 mm
08:02 -15 °C -15.3 °C 34669.3 hPa WNW 1 km/h 6.4 km/h 96 % 0 mm
08:03 -15 °C -15.3 °C 34669.3 hPa WNW 1 km/h 6.4 km/h 96 % 0 mm
08:04 -15 °C -15.3 °C 34669.3 hPa WNW 1 km/h 6.4 km/h 96 % 0 mm
08:05 -15 °C -15.3 °C 34669.3 hPa WNW 1 km/h 6.4 km/h 96 % 0 mm
08:08 -15 °C -15.3 °C 34669.3 hPa WNW 1 km/h 6.4 km/h 96 % 0 mm
08:09 -15 °C -15.3 °C 34669.3 hPa WNW 1.3 km/h 6.4 km/h 96 % 0 mm
08:10 -14.9 °C -15.3 °C 34669.3 hPa WNW 1.6 km/h 6.9 km/h 96 % 0 mm
08:11 -14.9 °C -15.3 °C 34669.3 hPa WNW 2.1 km/h 6.9 km/h 96 % 0 mm
08:12 -14.9 °C -15.3 °C 34669.3 hPa WNW 2.1 km/h 6.9 km/h 96 % 0 mm
08:16 -14.9 °C -15.2 °C 34669.3 hPa WNW 1.8 km/h 6.9 km/h 96 % 0 mm
08:19 -14.9 °C -15.2 °C 34669.3 hPa West 1 km/h 6.9 km/h 96 % 0 mm
08:20 -14.9 °C -15.2 °C 34669.3 hPa WNW 1 km/h 6.9 km/h 96 % 0 mm
08:21 -14.9 °C -15.2 °C 34669.3 hPa North 0.5 km/h 3.4 km/h 96 % 0 mm
08:22 -14.9 °C -15.2 °C 34669.3 hPa North 0.3 km/h 3.4 km/h 96 % 0 mm
08:24 -14.8 °C -15.2 °C 34669.3 hPa NNW 0.3 km/h 4.2 km/h 96 % 0 mm
08:27 -14.8 °C -15.2 °C 34669.3 hPa WNW 1.6 km/h 6.9 km/h 96 % 0 mm
08:28 -14.8 °C -15.2 °C 34669.3 hPa WNW 1.6 km/h 6.9 km/h 96 % 0 mm
08:29 -14.8 °C -15.1 °C 34669.3 hPa WNW 2.1 km/h 6.9 km/h 96 % 0 mm
08:31 -14.8 °C -15.1 °C 34669.3 hPa WNW 2.3 km/h 6.9 km/h 96 % 0 mm
08:32 -14.8 °C -15.1 °C 34669.3 hPa WNW 2.3 km/h 6.9 km/h 96 % 0 mm
08:33 -14.8 °C -15.1 °C 34669.3 hPa WNW 2.3 km/h 6.9 km/h 96 % 0 mm
08:35 -14.7 °C -15.1 °C 34669.3 hPa WNW 2.1 km/h 6.9 km/h 96 % 0 mm
08:36 -14.7 °C -15.1 °C 34669.3 hPa WNW 1.6 km/h 6.9 km/h 96 % 0 mm
08:37 -14.7 °C -15.1 °C 34669.3 hPa WNW 1.3 km/h 6.9 km/h 96 % 0 mm
08:38 -14.7 °C -15.1 °C 34669.3 hPa North 0.5 km/h   96 % 0 mm
08:40 -14.7 °C -15 °C 34669.3 hPa SW 0.3 km/h 6.4 km/h 96 % 0 mm
08:41 -14.7 °C -15 °C 34669.3 hPa SW 0.3 km/h 6.4 km/h 96 % 0 mm
08:43 -14.7 °C -15 °C 34669.3 hPa SW 1 km/h 6.4 km/h 96 % 0 mm
08:46 -14.7 °C -15 °C 34669.3 hPa West 1.6 km/h 6.4 km/h 96 % 0 mm
08:47 -14.7 °C -15 °C 34669.3 hPa West 1.6 km/h 6.4 km/h 96 % 0 mm
08:58 -14.6 °C -14.9 °C 34669.3 hPa Calm     96 % 0 mm
09:00 -14.6 °C -14.9 °C 34669.3 hPa Calm     96 % 0 mm
09:01 -14.6 °C -14.9 °C 34669.3 hPa Calm     96 % 0 mm
09:02 -14.6 °C -14.9 °C 34669.3 hPa Calm     96 % 0 mm
09:03 -14.6 °C -14.9 °C 34669.3 hPa Calm     96 % 0 mm
09:04 -14.5 °C -14.8 °C 34669.3 hPa Calm     96 % 0 mm
09:07 -14.5 °C -14.8 °C 34669.3 hPa Calm     96 % 0 mm
09:08 -14.4 °C -14.8 °C 34669.3 hPa Calm     96 % 0 mm
09:09 -14.4 °C -14.8 °C 34669.3 hPa Calm     96 % 0 mm
09:10 -14.4 °C -14.8 °C 34669.3 hPa Calm     96 % 0 mm
09:11 -14.4 °C -14.8 °C 34669.3 hPa Calm     96 % 0 mm
09:14 -14.4 °C -14.8 °C 34669.3 hPa Calm     96 % 0 mm
09:15 -14.4 °C -14.7 °C 34669.3 hPa Calm     96 % 0 mm
09:16 -14.4 °C -14.7 °C 34669.3 hPa Calm     96 % 0 mm
09:17 -14.4 °C -14.7 °C 34669.3 hPa Calm     96 % 0 mm
09:18 -14.3 °C -14.7 °C 34669.3 hPa Calm     96 % 0 mm
09:20 -14.3 °C -14.7 °C 34669.3 hPa Calm     96 % 0 mm
09:22 -14.3 °C -14.6 °C 34669.3 hPa NW 0.3 km/h 5.6 km/h 96 % 0 mm
09:23 -14.2 °C -14.6 °C 34669.3 hPa NW 0.3 km/h 5.6 km/h 96 % 0 mm
09:24 -14.2 °C -14.6 °C 34669.3 hPa NW 0.3 km/h 5.6 km/h 96 % 0 mm
09:25 -14.2 °C -14.6 °C 34669.3 hPa NW 0.5 km/h 5.6 km/h 96 % 0 mm
09:26 -14.2 °C -14.6 °C 34669.3 hPa NW 0.5 km/h 5.6 km/h 96 % 0 mm
09:27 -14.2 °C -14.5 °C 34669.3 hPa NW 0.5 km/h 5.6 km/h 96 % 0 mm
09:28 -14.2 °C -14.5 °C 34669.3 hPa NW 0.5 km/h 5.6 km/h 96 % 0 mm
09:29 -14.2 °C -14.5 °C 34669.3 hPa NW 1 km/h 6.9 km/h 96 % 0 mm
09:30 -14.2 °C -14.5 °C 34669.3 hPa NW 1.8 km/h 6.9 km/h 96 % 0 mm
09:31 -14.2 °C -14.5 °C 34669.3 hPa NW 1.8 km/h 6.9 km/h 96 % 0 mm
09:32 -14.1 °C -14.3 °C 34669.3 hPa NW 2.3 km/h 6.9 km/h 97 % 0 mm
09:34 -14.1 °C -14.3 °C 34669.3 hPa West 3.4 km/h 7.6 km/h 97 % 0 mm
09:35 -14.1 °C -14.3 °C 34669.3 hPa West 3.7 km/h 7.6 km/h 97 % 0 mm
09:36 -14.1 °C -14.3 °C 34669.3 hPa West 3.9 km/h 7.6 km/h 97 % 0 mm
09:37 -14.1 °C -14.3 °C 34669.3 hPa West 4.2 km/h 7.6 km/h 97 % 0 mm
09:38 -14.1 °C -14.3 °C 34669.3 hPa West 4.2 km/h 7.6 km/h 97 % 0 mm
09:39 -14.1 °C -14.3 °C 34669.3 hPa West 4.2 km/h 7.6 km/h 97 % 0 mm
09:40 -14 °C -14.3 °C 34669.3 hPa WSW 4.2 km/h 7.6 km/h 97 % 0 mm
09:42 -14 °C -14.3 °C 34669.3 hPa WSW 3.9 km/h 7.6 km/h 97 % 0 mm
09:44 -14 °C -14.3 °C 34669.3 hPa WSW 2.9 km/h 7.6 km/h 97 % 0 mm
09:46 -13.9 °C -14.2 °C 34669.3 hPa SW 1.6 km/h 6.4 km/h 97 % 0 mm
09:47 -13.9 °C -14.2 °C 34669.3 hPa SW 1.6 km/h 6.4 km/h 97 % 0 mm
09:48 -13.9 °C -14.2 °C 34669.3 hPa SW 1.6 km/h 6.4 km/h 97 % 0 mm
09:49 -13.9 °C -14.2 °C 34669.3 hPa SW 1 km/h 5.1 km/h 97 % 0 mm
09:50 -13.9 °C -14.2 °C 34669.3 hPa SW 0.8 km/h 5.1 km/h 97 % 0 mm
09:52 -13.9 °C -14.2 °C 34669.3 hPa Calm     96 % 0 mm
09:53 -13.9 °C -14.2 °C 34669.3 hPa Calm     96 % 0 mm
09:54 -13.9 °C -14.2 °C 34669.3 hPa Calm     96 % 0 mm
09:55 -13.9 °C -14.2 °C 34669.3 hPa Calm     96 % 0 mm
09:57 -13.9 °C -14.2 °C 34669.3 hPa Calm     96 % 0 mm
09:58 -13.8 °C -14.2 °C 34635.4 hPa Calm     96 % 0 mm
09:59 -13.8 °C -14.2 °C 34635.4 hPa Calm     96 % 0 mm
10:01 -13.8 °C -14.2 °C 34635.4 hPa Calm     96 % 0 mm
10:03 -13.8 °C -14.1 °C 34635.4 hPa Calm     96 % 0 mm
10:04 -13.8 °C -14.1 °C 34635.4 hPa Calm   3.4 km/h 96 % 0 mm
10:07 -13.7 °C -14.1 °C 34635.4 hPa Calm   3.4 km/h 96 % 0 mm
10:08 -13.7 °C -14.1 °C 34635.4 hPa Calm   3.4 km/h 96 % 0 mm
10:11 -13.7 °C -14.1 °C 34635.4 hPa Calm   3.4 km/h 96 % 0 mm
10:12 -13.7 °C -13.9 °C 34635.4 hPa Calm   3.4 km/h 97 % 0 mm
10:16 -13.7 °C -13.9 °C 34635.4 hPa Calm     97 % 0 mm
10:18 -13.7 °C -13.9 °C 34635.4 hPa Calm   4.2 km/h 97 % 0 mm
10:19 -13.6 °C -13.8 °C 34635.4 hPa West 0.3 km/h 4.2 km/h 97 % 0 mm
10:21 -13.6 °C -13.8 °C 34635.4 hPa West 0.3 km/h 4.2 km/h 97 % 0 mm
10:22 -13.6 °C -13.8 °C 34635.4 hPa West 0.3 km/h 4.2 km/h 97 % 0 mm
10:23 -13.6 °C -13.8 °C 34635.4 hPa West 0.3 km/h 4.2 km/h 97 % 0 mm
10:24 -13.6 °C -13.8 °C 34635.4 hPa West 0.3 km/h 4.2 km/h 97 % 0 mm
10:25 -13.6 °C -13.8 °C 34635.4 hPa West 0.3 km/h 4.2 km/h 97 % 0 mm
10:27 -13.6 °C -13.8 °C 34635.4 hPa West 0.3 km/h 4.2 km/h 97 % 0 mm
10:29 -13.6 °C -13.8 °C 34635.4 hPa Calm     97 % 0 mm
10:32 -13.6 °C -13.8 °C 34635.4 hPa Calm     97 % 0 mm
10:33 -13.6 °C -13.8 °C 34635.4 hPa Calm     97 % 0 mm
10:34 -13.6 °C -13.8 °C 34635.4 hPa Calm     97 % 0 mm
10:36 -13.5 °C -13.7 °C 34635.4 hPa Calm     97 % 0 mm
10:37 -13.5 °C -13.7 °C 34635.4 hPa Calm     97 % 0 mm
10:38 -13.5 °C -13.7 °C 34635.4 hPa Calm     97 % 0 mm
10:40 -13.5 °C -13.7 °C 34635.4 hPa Calm     97 % 0 mm
10:43 -13.4 °C -13.7 °C 34635.4 hPa Calm   8 km/h 97 % 0 mm
10:45 -13.4 °C -13.7 °C 34635.4 hPa NE 1.3 km/h 8.9 km/h 97 % 0 mm
10:49 -13.4 °C -13.7 °C 34635.4 hPa NE 3.1 km/h 9.3 km/h 97 % 0 mm
10:54 -13.4 °C -13.7 °C 34635.4 hPa NE 3.9 km/h 9.8 km/h 97 % 0 mm
10:55 -13.4 °C -13.7 °C 34635.4 hPa NE 3.9 km/h 9.8 km/h 97 % 0 mm
10:56 -13.4 °C -13.7 °C 34635.4 hPa NNE 4.2 km/h 9.8 km/h 97 % 0 mm
10:57 -13.4 °C -13.7 °C 34601.5 hPa NNE 4.2 km/h 9.8 km/h 97 % 0 mm
10:59 -13.4 °C -13.7 °C 34601.5 hPa NE 4.2 km/h 9.8 km/h 97 % 0 mm
11:00 -13.4 °C -13.7 °C 34601.5 hPa NE 4.3 km/h 9.8 km/h 97 % 0 mm
11:01 -13.4 °C -13.7 °C 34601.5 hPa NE 4.7 km/h 9.8 km/h 97 % 0 mm
11:03 -13.3 °C -13.7 °C 34601.5 hPa NE 5.1 km/h 9.8 km/h 96 % 0 mm
11:04 -13.3 °C -13.7 °C 34601.5 hPa NE 5 km/h 9.3 km/h 96 % 0 mm
11:05 -13.3 °C -13.7 °C 34601.5 hPa NE 4.3 km/h 9.3 km/h 96 % 0 mm
11:06 -13.3 °C -13.7 °C 34601.5 hPa ENE 3.7 km/h 8 km/h 96 % 0 mm
11:08 -13.3 °C -13.7 °C 34601.5 hPa ENE 3.4 km/h 8 km/h 96 % 0 mm
11:09 -13.3 °C -13.7 °C 34601.5 hPa ENE 2.9 km/h 7.6 km/h 96 % 0 mm
11:10 -13.3 °C -13.7 °C 34601.5 hPa ENE 2.3 km/h 7.6 km/h 96 % 0 mm
11:11 -13.3 °C -13.7 °C 34601.5 hPa ENE 2.3 km/h 7.6 km/h 96 % 0 mm
11:12 -13.3 °C -13.6 °C 34635.4 hPa ENE 3.1 km/h 8 km/h 96 % 0 mm
11:13 -13.3 °C -13.6 °C 34635.4 hPa ENE 3.4 km/h 8 km/h 96 % 0 mm
11:14 -13.3 °C -13.6 °C 34635.4 hPa ENE 3.7 km/h 8 km/h 96 % 0 mm
11:15 -13.3 °C -13.6 °C 34635.4 hPa ENE 3.9 km/h 9.8 km/h 96 % 0 mm
11:16 -13.3 °C -13.6 °C 34635.4 hPa ENE 4.7 km/h 9.8 km/h 96 % 0 mm
11:17 -13.3 °C -13.6 °C 34635.4 hPa NE 5 km/h 9.8 km/h 96 % 0 mm
11:19 -13.2 °C -13.6 °C 34635.4 hPa NE 5.1 km/h 9.8 km/h 96 % 0 mm
11:20 -13.2 °C -13.6 °C 34635.4 hPa NE 4.7 km/h 9.8 km/h 96 % 0 mm
11:21 -13.2 °C -13.6 °C 34635.4 hPa NE 4.7 km/h 9.8 km/h 96 % 0 mm
11:22 -13.2 °C -13.6 °C 34635.4 hPa NE 4.3 km/h 9.8 km/h 96 % 0 mm
11:25 -13.2 °C -13.6 °C 34635.4 hPa NE 3.4 km/h 12.7 km/h 96 % 0 mm
11:26 -13.2 °C -13.6 °C 34635.4 hPa NE 3.7 km/h 12.7 km/h 96 % 0 mm
11:27 -13.2 °C -13.6 °C 34635.4 hPa NE 3.7 km/h 12.7 km/h 96 % 0 mm
11:28 -13.2 °C -13.5 °C 34635.4 hPa ENE 3.7 km/h 12.7 km/h 96 % 0 mm
11:30 -13.2 °C -13.5 °C 34635.4 hPa ENE 4.2 km/h 12.7 km/h 96 % 0 mm
11:32 -13.2 °C -13.5 °C 34635.4 hPa ENE 5 km/h 12.7 km/h 96 % 0 mm
11:34 -13.2 °C -13.5 °C 34635.4 hPa ENE 5.1 km/h 10.3 km/h 96 % 0 mm
11:36 -13.2 °C -13.5 °C 34635.4 hPa ENE 4.2 km/h 9.3 km/h 96 % 0 mm
11:37 -13.1 °C -13.4 °C 34635.4 hPa ENE 3.4 km/h 8 km/h 96 % 0 mm
11:38 -13.1 °C -13.4 °C 34635.4 hPa NE 2.6 km/h 8 km/h 96 % 0 mm
11:39 -13.1 °C -13.4 °C 34635.4 hPa NE 2.1 km/h 8 km/h 96 % 0 mm
11:40 -13.1 °C -13.4 °C 34635.4 hPa NE 1.3 km/h 6.4 km/h 96 % 0 mm
11:41 -13.1 °C -13.4 °C 34635.4 hPa NE 1.3 km/h 6.4 km/h 96 % 0 mm
11:43 -13.1 °C -13.4 °C 34635.4 hPa North 0.5 km/h   96 % 0 mm
11:44 -13.1 °C -13.4 °C 34635.4 hPa Calm     96 % 0 mm
11:45 -13.1 °C -13.4 °C 34635.4 hPa Calm     96 % 0 mm
11:46 -13.1 °C -13.4 °C 34635.4 hPa Calm     96 % 0 mm
11:47 -13.1 °C -13.4 °C 34635.4 hPa NNW 0.5 km/h 5.6 km/h 96 % 0 mm
11:48 -13.1 °C -13.4 °C 34635.4 hPa North 0.8 km/h 5.6 km/h 96 % 0 mm
11:49 -13.1 °C -13.4 °C 34635.4 hPa NNE 1 km/h 5.6 km/h 96 % 0 mm
11:50 -13.1 °C -13.4 °C 34635.4 hPa NNE 1.6 km/h 6.4 km/h 96 % 0 mm
11:51 -13.1 °C -13.4 °C 34635.4 hPa NNE 1.6 km/h 7.6 km/h 96 % 0 mm
11:54 -13.1 °C -13.4 °C 34635.4 hPa NNE 2.6 km/h 7.6 km/h 96 % 0 mm
11:55 -13.1 °C -13.4 °C 34635.4 hPa NE 3.1 km/h 8 km/h 96 % 0 mm
11:59 -13.1 °C -13.4 °C 34601.5 hPa ENE 5 km/h 15 km/h 96 % 0 mm
12:01 -13.1 °C -13.4 °C 34601.5 hPa ENE 6.4 km/h 16.9 km/h 96 % 0 mm
12:02 -13.1 °C -13.4 °C 34601.5 hPa ENE 7.2 km/h 16.9 km/h 96 % 0 mm
12:05 -13.1 °C -13.4 °C 34601.5 hPa ENE 8.9 km/h 16.9 km/h 96 % 0 mm
12:07 -13.1 °C -13.4 °C 34601.5 hPa NE 9.3 km/h 16.9 km/h 96 % 0 mm
12:09 -13.1 °C -13.4 °C 34601.5 hPa NE 9 km/h 12.7 km/h 96 % 0 mm
12:10 -13.1 °C -13.5 °C 34601.5 hPa NE 9 km/h 12.7 km/h 95 % 0 mm
12:12 -13.1 °C -13.5 °C 34601.5 hPa NE 8 km/h 11.1 km/h 95 % 0 mm
12:17 -13.1 °C -13.5 °C 34601.5 hPa NE 7.2 km/h 10.3 km/h 95 % 0 mm
12:19 -13.1 °C -13.5 °C 34601.5 hPa NE 7.2 km/h 10.3 km/h 95 % 0 mm
12:20 -13.1 °C -13.5 °C 34601.5 hPa NE 6.9 km/h 10.3 km/h 95 % 0 mm
12:21 -13.1 °C -13.5 °C 34601.5 hPa ENE 6.9 km/h 10.3 km/h 95 % 0 mm
12:22 -13.1 °C -13.5 °C 34601.5 hPa ENE 6.9 km/h 10.3 km/h 95 % 0 mm
12:23 -13.1 °C -13.5 °C 34601.5 hPa ENE 7.2 km/h 10.3 km/h 95 % 0 mm
12:24 -13.1 °C -13.5 °C 34601.5 hPa ENE 7.2 km/h 10.3 km/h 95 % 0 mm
12:25 -13.1 °C -13.5 °C 34601.5 hPa ENE 6.8 km/h 10.3 km/h 95 % 0 mm
12:26 -13.1 °C -13.5 °C 34601.5 hPa NE 6.4 km/h 10.3 km/h 95 % 0 mm
12:27 -13.1 °C -13.5 °C 34601.5 hPa NE 6.4 km/h 10.3 km/h 95 % 0 mm
12:30 -13.1 °C -13.5 °C 34567.7 hPa NE 6.3 km/h 9.8 km/h 95 % 0 mm
12:31 -13.1 °C -13.5 °C 34567.7 hPa NE 6.4 km/h 9.8 km/h 95 % 0 mm
12:32 -13.1 °C -13.5 °C 34567.7 hPa NE 6.4 km/h 9.8 km/h 95 % 0 mm
12:33 -13.1 °C -13.5 °C 34567.7 hPa NE 6.4 km/h 9.8 km/h 95 % 0 mm
12:34 -13.1 °C -13.5 °C 34567.7 hPa NE 6.4 km/h 9.8 km/h 95 % 0 mm
12:35 -13.1 °C -13.5 °C 34567.7 hPa NE 6.8 km/h 9.8 km/h 95 % 0 mm
12:36 -13.1 °C -13.5 °C 34567.7 hPa ENE 7.2 km/h 11.1 km/h 95 % 0 mm
12:38 -13.1 °C -13.5 °C 34567.7 hPa ENE 7.7 km/h 11.1 km/h 95 % 0 mm
12:39 -13.1 °C -13.5 °C 34567.7 hPa ENE 7.7 km/h 11.1 km/h 95 % 0 mm
12:40 -13.1 °C -13.5 °C 34567.7 hPa NE 7.2 km/h 11.1 km/h 95 % 0 mm
12:42 -13.1 °C -13.5 °C 34567.7 hPa NE 6.8 km/h 11.1 km/h 95 % 0 mm
12:43 -13.1 °C -13.5 °C 34567.7 hPa NE 6.4 km/h 11.1 km/h 95 % 0 mm
12:44 -13.1 °C -13.5 °C 34567.7 hPa NE 6 km/h 11.1 km/h 95 % 0 mm
12:46 -13.1 °C -13.5 °C 34567.7 hPa NE 5.1 km/h 11.1 km/h 95 % 0 mm
12:48 -13.1 °C -13.6 °C 34567.7 hPa NNE 3.9 km/h 8.9 km/h 94 % 0 mm
12:49 -13.1 °C -13.6 °C 34567.7 hPa NNE 3.4 km/h 8.9 km/h 94 % 0 mm
12:50 -13.1 °C -13.6 °C 34567.7 hPa NNE 3.7 km/h 8 km/h 94 % 0 mm
12:51 -13.1 °C -13.6 °C 34567.7 hPa NNE 3.9 km/h 10.3 km/h 94 % 0 mm
12:54 -13 °C -13.5 °C 34567.7 hPa NNE 5.5 km/h 10.3 km/h 94 % 0 mm
12:57 -13.1 °C -13.6 °C 34567.7 hPa NE 6 km/h 10.3 km/h 94 % 0 mm
12:58 -13.1 °C -13.6 °C 34567.7 hPa NE 6.8 km/h 10.3 km/h 94 % 0 mm
12:59 -13.1 °C -13.6 °C 34567.7 hPa NE 7.6 km/h 14 km/h 94 % 0 mm
13:00 -13.1 °C -13.6 °C 34567.7 hPa NE 7.6 km/h 15 km/h 94 % 0 mm
13:02 -13.1 °C -13.6 °C 34567.7 hPa NE 8.9 km/h 15 km/h 94 % 0 mm
13:03 -13.1 °C -13.6 °C 34567.7 hPa NE 8.9 km/h 15 km/h 94 % 0 mm
13:04 -13.1 °C -13.6 °C 34567.7 hPa ENE 9.3 km/h 15 km/h 94 % 0 mm
13:07 -13 °C -13.5 °C 34567.7 hPa ENE 9 km/h 15 km/h 94 % 0 mm
13:08 -13 °C -13.5 °C 34567.7 hPa ENE 9 km/h 15 km/h 94 % 0 mm
13:09 -13 °C -13.5 °C 34567.7 hPa ENE 8.9 km/h 15 km/h 94 % 0 mm
13:10 -13 °C -13.5 °C 34567.7 hPa ENE 7.7 km/h 15 km/h 94 % 0 mm
13:12 -13 °C -13.5 °C 34567.7 hPa East 6.9 km/h 15 km/h 94 % 0 mm
13:14 -13 °C -13.5 °C 34567.7 hPa East 6.4 km/h 9.3 km/h 94 % 0 mm
13:16 -12.9 °C -13.4 °C 34567.7 hPa East 6 km/h 9.3 km/h 94 % 0 mm
13:17 -12.9 °C -13.4 °C 34567.7 hPa East 6 km/h 8.9 km/h 94 % 0 mm
13:18 -12.9 °C -13.4 °C 34567.7 hPa East 5.5 km/h 8 km/h 94 % 0 mm
13:20 -12.9 °C -13.6 °C 34567.7 hPa East 5.5 km/h 11.1 km/h 93 % 0 mm
13:22 -12.9 °C -13.6 °C 34567.7 hPa East 5.6 km/h 11.1 km/h 93 % 0 mm
13:23 -12.9 °C -13.6 °C 34567.7 hPa East 6 km/h 11.1 km/h 93 % 0 mm
13:24 -12.9 °C -13.6 °C 34567.7 hPa East 6 km/h 11.1 km/h 93 % 0 mm
13:25 -13 °C -13.6 °C 34567.7 hPa East 6.3 km/h 11.1 km/h 93 % 0 mm
13:26 -13 °C -13.6 °C 34567.7 hPa East 6.8 km/h 11.1 km/h 93 % 0 mm
13:29 -13 °C -13.6 °C 34567.7 hPa East 7.6 km/h 11.1 km/h 93 % 0 mm
13:30 -13 °C -13.6 °C 34567.7 hPa East 7.2 km/h 10.3 km/h 93 % 0 mm
13:31 -13 °C -13.6 °C 34567.7 hPa East 6.9 km/h 10.3 km/h 93 % 0 mm
13:32 -13 °C -13.6 °C 34567.7 hPa East 6.9 km/h 10.3 km/h 93 % 0 mm
13:33 -13 °C -13.6 °C 34567.7 hPa ENE 6.4 km/h 10.3 km/h 93 % 0 mm
13:35 -13 °C -13.6 °C 34567.7 hPa ENE 6.4 km/h 9.8 km/h 93 % 0 mm
13:36 -13 °C -13.6 °C 34567.7 hPa ENE 6.3 km/h 9.8 km/h 93 % 0 mm
13:38 -13 °C -13.6 °C 34567.7 hPa NE 6.4 km/h 10.3 km/h 93 % 0 mm
13:39 -13 °C -13.6 °C 34567.7 hPa NE 6.9 km/h 10.3 km/h 93 % 0 mm
13:40 -13 °C -13.6 °C 34567.7 hPa NE 7.2 km/h 10.3 km/h 93 % 0 mm
13:42 -13 °C -13.6 °C 34533.8 hPa NE 7.2 km/h 10.3 km/h 93 % 0 mm
13:44 -13 °C -13.6 °C 34533.8 hPa NE 6.9 km/h 10.3 km/h 93 % 0 mm
13:46 -13 °C -13.6 °C 34533.8 hPa NE 6 km/h 10.3 km/h 93 % 0 mm
13:48 -13 °C -13.6 °C 34533.8 hPa NE 3.9 km/h 9.3 km/h 93 % 0 mm
13:50 -13 °C -13.6 °C 34533.8 hPa NE 3.4 km/h 9.3 km/h 93 % 0 mm
13:51 -13 °C -13.6 °C 34533.8 hPa NE 3.1 km/h 9.3 km/h 93 % 0 mm
13:53 -13.1 °C -13.7 °C 34533.8 hPa NE 2.1 km/h 9.3 km/h 92 % 0 mm
13:54 -13.1 °C -13.7 °C 34533.8 hPa NE 2.3 km/h 9.3 km/h 92 % 0 mm
13:56 -13.1 °C -13.7 °C 34533.8 hPa NE 3.4 km/h 9.3 km/h 92 % 0 mm
13:57 -13.1 °C -13.7 °C 34533.8 hPa NE 3.9 km/h 9.3 km/h 92 % 0 mm
13:58 -13.1 °C -13.7 °C 34533.8 hPa NE 4.2 km/h 9.3 km/h 92 % 0 mm
13:59 -13.1 °C -13.7 °C 34533.8 hPa NE 4.2 km/h 7.6 km/h 92 % 0 mm
14:00 -13.1 °C -13.7 °C 34533.8 hPa NE 3.4 km/h 7.6 km/h 92 % 0 mm
14:01 -13.1 °C -13.7 °C 34533.8 hPa NE 3.1 km/h 7.6 km/h 92 % 0 mm
14:02 -13.1 °C -13.7 °C 34533.8 hPa NE 3.1 km/h 7.6 km/h 92 % 0 mm
14:03 -13.1 °C -13.7 °C 34533.8 hPa NE 3.1 km/h 7.6 km/h 92 % 0 mm
14:04 -13.1 °C -13.7 °C 34533.8 hPa NE 2.6 km/h 7.6 km/h 92 % 0 mm
14:05 -13.1 °C -13.7 °C 34533.8 hPa ENE 2.6 km/h 7.6 km/h 92 % 0 mm
14:09 -13.1 °C -13.7 °C 34533.8 hPa NE 0.3 km/h 2.9 km/h 92 % 0 mm
14:11 -13.1 °C -13.7 °C 34533.8 hPa Calm     92 % 0 mm
14:13 -13.1 °C -13.7 °C 34533.8 hPa Calm     92 % 0 mm
14:14 -13.1 °C -13.7 °C 34533.8 hPa Calm     92 % 0 mm
14:15 -13.1 °C -13.7 °C 34533.8 hPa Calm     92 % 0 mm
14:16 -13.1 °C -13.7 °C 34533.8 hPa Calm     92 % 0 mm
14:18 -13.1 °C -13.7 °C 34533.8 hPa Calm     92 % 0 mm
14:19 -13.1 °C -13.7 °C 34533.8 hPa Calm     92 % 0 mm
14:20 -13.1 °C -13.7 °C 34533.8 hPa Calm   3.4 km/h 92 % 0 mm
14:21 -13.1 °C -13.7 °C 34533.8 hPa ENE 0.3 km/h 6.9 km/h 92 % 0 mm
14:22 -13.1 °C -13.7 °C 34533.8 hPa ENE 0.8 km/h 6.9 km/h 92 % 0 mm
14:23 -13.1 °C -13.7 °C 34533.8 hPa ENE 1.6 km/h 8 km/h 92 % 0 mm
14:24 -13.1 °C -13.7 °C 34533.8 hPa ENE 1.6 km/h 8 km/h 92 % 0 mm
14:25 -13.1 °C -13.7 °C 34533.8 hPa ENE 2.6 km/h 8 km/h 92 % 0 mm
14:28 -13.1 °C -13.7 °C 34567.7 hPa ENE 4.2 km/h 9.3 km/h 92 % 0 mm
14:30 -13.1 °C -13.7 °C 34567.7 hPa ENE 6 km/h 9.3 km/h 92 % 0 mm
14:32 -13.1 °C -13.7 °C 34567.7 hPa NE 6.4 km/h 9.3 km/h 92 % 0 mm
14:33 -13.1 °C -13.7 °C 34567.7 hPa NE 6.4 km/h 9.3 km/h 92 % 0 mm
14:34 -13.1 °C -13.8 °C 34567.7 hPa NE 6.4 km/h 9.3 km/h 91 % 0 mm
14:35 -13.1 °C -13.8 °C 34567.7 hPa NE 6.8 km/h 10.3 km/h 91 % 0 mm
14:36 -13.1 °C -13.8 °C 34567.7 hPa NE 7.2 km/h 11.1 km/h 91 % 0 mm
14:38 -13.1 °C -13.8 °C 34567.7 hPa ENE 7.7 km/h 11.1 km/h 91 % 0 mm
14:40 -13.1 °C -13.9 °C 34567.7 hPa ENE 7.7 km/h 11.1 km/h 91 % 0 mm
14:41 -13.1 °C -13.9 °C 34567.7 hPa ENE 7.7 km/h 11.1 km/h 91 % 0 mm
14:43 -13.1 °C -13.9 °C 34496.6 hPa ENE 8 km/h 11.1 km/h 91 % 0 mm
14:44 -13.1 °C -13.9 °C 34496.6 hPa ENE 8 km/h 11.1 km/h 91 % 0 mm
14:45 -13.1 °C -13.9 °C 34496.6 hPa ENE 8 km/h 11.1 km/h 91 % 0 mm
14:46 -13.1 °C -13.9 °C 34496.6 hPa ENE 7.6 km/h 11.1 km/h 91 % 0 mm
14:48 -13.1 °C -13.9 °C 34496.6 hPa ENE 6.8 km/h 10.3 km/h 91 % 0 mm
14:50 -13.1 °C -13.9 °C 34496.6 hPa East 6.4 km/h 8.9 km/h 91 % 0 mm
14:53 -13.2 °C -13.9 °C 34496.6 hPa East 6.8 km/h 10.3 km/h 91 % 0 mm
14:54 -13.2 °C -13.9 °C 34496.6 hPa East 6.9 km/h 10.3 km/h 91 % 0 mm
14:55 -13.2 °C -13.9 °C 34496.6 hPa East 6.9 km/h 10.3 km/h 91 % 0 mm
14:58 -13.2 °C -13.9 °C 34476.3 hPa East 7.6 km/h 10.3 km/h 91 % 0 mm
14:59 -13.2 °C -13.9 °C 34476.3 hPa East 7.2 km/h 10.3 km/h 91 % 0 mm
15:00 -13.2 °C -13.9 °C 34476.3 hPa East 7.2 km/h 10.3 km/h 91 % 0 mm
15:02 -13.2 °C -14 °C 34476.3 hPa East 6.9 km/h 9.8 km/h 91 % 0 mm
15:04 -13.2 °C -14 °C 34476.3 hPa East 6 km/h 9.8 km/h 91 % 0 mm
15:06 -13.2 °C -14 °C 34476.3 hPa East 4.7 km/h 9.8 km/h 91 % 0 mm
15:07 -13.2 °C -14 °C 34476.3 hPa East 4.2 km/h 9.8 km/h 91 % 0 mm
15:09 -13.2 °C -14 °C 34476.3 hPa ESE 3.9 km/h 9.8 km/h 91 % 0 mm
15:10 -13.2 °C -14 °C 34476.3 hPa ESE 3.9 km/h 9.8 km/h 91 % 0 mm
15:11 -13.2 °C -14 °C 34476.3 hPa ESE 3.9 km/h 8 km/h 91 % 0 mm
15:12 -13.2 °C -14 °C 34496.6 hPa ESE 3.7 km/h 11.1 km/h 91 % 0 mm
15:14 -13.2 °C -14 °C 34496.6 hPa ESE 4.2 km/h 11.1 km/h 91 % 0 mm
15:15 -13.3 °C -14.1 °C 34496.6 hPa ESE 4.3 km/h 11.1 km/h 90 % 0 mm
15:16 -13.3 °C -14.1 °C 34496.6 hPa ESE 4.3 km/h 11.1 km/h 90 % 0 mm
15:17 -13.3 °C -14.1 °C 34496.6 hPa ESE 5.1 km/h 11.1 km/h 90 % 0 mm
15:18 -13.3 °C -14.1 °C 34496.6 hPa ESE 5.1 km/h 11.1 km/h 90 % 0 mm
15:20 -13.3 °C -14.1 °C 34496.6 hPa ESE 5.1 km/h 11.1 km/h 90 % 0 mm
15:22 -13.3 °C -14.1 °C 34496.6 hPa ESE 5.6 km/h 9.8 km/h 90 % 0 mm
15:23 -13.3 °C -14.1 °C 34496.6 hPa East 5.5 km/h 9.8 km/h 90 % 0 mm
15:25 -13.3 °C -14.1 °C 34496.6 hPa ESE 5 km/h 9.8 km/h 90 % 0 mm
15:26 -13.3 °C -14.1 °C 34496.6 hPa ESE 4.2 km/h 9.8 km/h 90 % 0 mm
15:27 -13.3 °C -14.1 °C 34496.6 hPa ESE 3.9 km/h 9.8 km/h 90 % 0 mm
15:28 -13.3 °C -14.1 °C 34496.6 hPa ESE 3.4 km/h 9.8 km/h 90 % 0 mm
15:29 -13.3 °C -14.1 °C 34496.6 hPa ESE 3.1 km/h 9.8 km/h 90 % 0 mm
15:30 -13.3 °C -14.1 °C 34496.6 hPa East 2.3 km/h 9.8 km/h 90 % 0 mm
15:34 -13.3 °C -14.1 °C 34496.6 hPa NW 0.3 km/h 2.3 km/h 90 % 0 mm
15:36 -13.3 °C -14.1 °C 34496.6 hPa Calm     90 % 0 mm
15:37 -13.3 °C -14.1 °C 34496.6 hPa Calm     90 % 0 mm
15:38 -13.3 °C -14.2 °C 34496.6 hPa Calm     90 % 0 mm
15:39 -13.3 °C -14.2 °C 34496.6 hPa Calm     90 % 0 mm
15:40 -13.3 °C -14.2 °C 34496.6 hPa Calm     90 % 0 mm
15:41 -13.3 °C -14.2 °C 34496.6 hPa Calm     90 % 0 mm
15:42 -13.3 °C -14.2 °C 34496.6 hPa Calm     90 % 0 mm
15:43 -13.3 °C -14.2 °C 34496.6 hPa Calm     90 % 0 mm
15:44 -13.3 °C -14.2 °C 34496.6 hPa Calm     90 % 0 mm
15:46 -13.3 °C -14.2 °C 34496.6 hPa Calm     90 % 0 mm
15:47 -13.4 °C -14.2 °C 34496.6 hPa Calm     91 % 0 mm
15:48 -13.4 °C -14.2 °C 34496.6 hPa Calm     91 % 0 mm
15:49 -13.4 °C -14.2 °C 34496.6 hPa Calm     91 % 0 mm
15:50 -13.4 °C -14.2 °C 34496.6 hPa Calm     91 % 0 mm
15:52 -13.4 °C -14.2 °C 34496.6 hPa Calm     91 % 0 mm
15:53 -13.4 °C -14.2 °C 34496.6 hPa Calm     91 % 0 mm
15:54 -13.4 °C -14.2 °C 34496.6 hPa Calm     91 % 0 mm
15:56 -13.4 °C -14.2 °C 34496.6 hPa Calm     91 % 0 mm
15:58 -13.4 °C -14.2 °C 34496.6 hPa Calm     91 % 0 mm
15:59 -13.4 °C -14.2 °C 34496.6 hPa Calm     91 % 0 mm
16:01 -13.4 °C -14.2 °C 34496.6 hPa Calm     91 % 0 mm
16:03 -13.4 °C -14.2 °C 34496.6 hPa Calm     91 % 0 mm
16:05 -13.4 °C -14.2 °C 34496.6 hPa Calm     91 % 0 mm
16:07 -13.4 °C -14.2 °C 34496.6 hPa Calm     91 % 0 mm
16:08 -13.4 °C -14.2 °C 34496.6 hPa Calm     91 % 0 mm
16:09 -13.4 °C -14.2 °C 34496.6 hPa Calm     91 % 0 mm
16:13 -13.5 °C -14.3 °C 34496.6 hPa Calm     91 % 0 mm
16:14 -13.5 °C -14.3 °C 34496.6 hPa Calm     91 % 0 mm
16:15 -13.5 °C -14.3 °C 34496.6 hPa Calm     91 % 0 mm
16:17 -13.5 °C -14.3 °C 34496.6 hPa Calm     91 % 0 mm
16:18 -13.5 °C -14.3 °C 34496.6 hPa Calm     91 % 0 mm
16:19 -13.5 °C -14.3 °C 34496.6 hPa Calm     91 % 0 mm
16:20 -13.5 °C -14.3 °C 34496.6 hPa Calm     91 % 0 mm
16:22 -13.5 °C -14.3 °C 34496.6 hPa NE 0.3 km/h 6.9 km/h 91 % 0 mm
16:23 -13.5 °C -14.3 °C 34496.6 hPa NE 0.3 km/h 6.9 km/h 91 % 0 mm
16:24 -13.5 °C -14.3 °C 34496.6 hPa NE 1 km/h 6.9 km/h 91 % 0 mm
16:26 -13.5 °C -14.3 °C 34496.6 hPa NE 1 km/h 6.9 km/h 91 % 0 mm
16:27 -13.5 °C -14.3 °C 34496.6 hPa NE 1 km/h 6.9 km/h 91 % 0 mm
16:28 -13.6 °C -14.3 °C 34496.6 hPa NE 1 km/h 6.9 km/h 91 % 0 mm
16:29 -13.6 °C -14.3 °C 34496.6 hPa NE 1 km/h 6.9 km/h 91 % 0 mm
16:30 -13.6 °C -14.3 °C 34496.6 hPa NE 1 km/h 6.9 km/h 91 % 0 mm
16:31 -13.6 °C -14.3 °C 34496.6 hPa NE 1 km/h 6.9 km/h 91 % 0 mm
16:33 -13.6 °C -14.3 °C 34496.6 hPa NE 1 km/h 6.9 km/h 91 % 0 mm
16:34 -13.6 °C -14.4 °C 34496.6 hPa East 0.8 km/h 5.1 km/h 91 % 0 mm
16:36 -13.6 °C -14.4 °C 34496.6 hPa East 1.3 km/h 5.1 km/h 91 % 0 mm
16:38 -13.6 °C -14.4 °C 34496.6 hPa ESE 2.1 km/h 5.6 km/h 91 % 0 mm
16:39 -13.6 °C -14.4 °C 34496.6 hPa ESE 2.3 km/h 5.6 km/h 91 % 0 mm
16:40 -13.7 °C -14.4 °C 34496.6 hPa SE 2.6 km/h 5.6 km/h 91 % 0 mm
16:41 -13.7 °C -14.4 °C 34496.6 hPa SE 2.9 km/h 5.6 km/h 91 % 0 mm
16:42 -13.7 °C -14.4 °C 34496.6 hPa SE 2.9 km/h 5.6 km/h 91 % 0 mm
16:43 -13.7 °C -14.4 °C 34496.6 hPa SE 2.9 km/h 5.6 km/h 91 % 0 mm
16:44 -13.7 °C -14.4 °C 34496.6 hPa SE 2.3 km/h 5.6 km/h 91 % 0 mm
16:45 -13.7 °C -14.4 °C 34496.6 hPa SE 2.1 km/h 5.6 km/h 91 % 0 mm
16:46 -13.7 °C -14.4 °C 34496.6 hPa SE 1.8 km/h 5.6 km/h 91 % 0 mm
16:48 -13.7 °C -14.5 °C 34496.6 hPa SE 0.8 km/h 5.6 km/h 91 % 0 mm
16:49 -13.7 °C -14.5 °C 34496.6 hPa SE 0.5 km/h 2.9 km/h 91 % 0 mm
16:55 -13.8 °C -14.6 °C 34496.6 hPa Calm   4.2 km/h 91 % 0 mm
16:56 -13.8 °C -14.6 °C 34496.6 hPa SW 0.3 km/h 5.1 km/h 91 % 0 mm
16:57 -13.8 °C -14.6 °C 34496.6 hPa SW 0.5 km/h 5.1 km/h 91 % 0 mm
16:59 -13.8 °C -14.6 °C 34496.6 hPa SW 0.5 km/h 5.1 km/h 91 % 0 mm
17:00 -13.9 °C -14.7 °C 34496.6 hPa SW 0.5 km/h 5.1 km/h 91 % 0 mm
17:02 -13.9 °C -14.7 °C 34496.6 hPa SW 0.5 km/h 5.1 km/h 91 % 0 mm
17:03 -13.9 °C -14.7 °C 34496.6 hPa SW 0.5 km/h 5.1 km/h 91 % 0 mm
17:04 -13.9 °C -14.7 °C 34496.6 hPa SW 0.5 km/h 5.1 km/h 91 % 0 mm
17:05 -13.9 °C -14.7 °C 34496.6 hPa WSW 0.5 km/h 5.1 km/h 91 % 0 mm
17:06 -13.9 °C -14.7 °C 34496.6 hPa WSW 0.5 km/h 5.1 km/h 91 % 0 mm
17:08 -14 °C -14.8 °C 34496.6 hPa West 0.5 km/h 4.2 km/h 91 % 0 mm
17:09 -14 °C -14.8 °C 34496.6 hPa West 0.5 km/h 4.2 km/h 91 % 0 mm
17:10 -14 °C -14.8 °C 34496.6 hPa West 0.5 km/h 4.2 km/h 91 % 0 mm
17:11 -14 °C -14.8 °C 34496.6 hPa West 0.5 km/h 4.2 km/h 91 % 0 mm
17:12 -14 °C -14.8 °C 34533.8 hPa West 0.5 km/h 4.2 km/h 91 % 0 mm
17:13 -14 °C -14.8 °C 34533.8 hPa West 0.5 km/h 4.2 km/h 91 % 0 mm
17:14 -14 °C -14.8 °C 34533.8 hPa West 0.5 km/h 2.9 km/h 91 % 0 mm
17:15 -14 °C -14.8 °C 34533.8 hPa West 0.5 km/h 2.9 km/h 91 % 0 mm
17:16 -14.1 °C -14.8 °C 34533.8 hPa North 0.3 km/h   91 % 0 mm
17:17 -14.1 °C -14.8 °C 34533.8 hPa Calm     91 % 0 mm
17:18 -14.1 °C -14.8 °C 34533.8 hPa Calm     91 % 0 mm
17:19 -14.1 °C -14.8 °C 34533.8 hPa Calm     91 % 0 mm
17:21 -14.1 °C -14.8 °C 34533.8 hPa Calm     91 % 0 mm
17:23 -14.1 °C -14.8 °C 34533.8 hPa Calm     91 % 0 mm
17:24 -14.1 °C -14.8 °C 34533.8 hPa Calm     91 % 0 mm
17:25 -14.1 °C -14.8 °C 34533.8 hPa Calm     91 % 0 mm
17:26 -14.1 °C -14.8 °C 34533.8 hPa Calm     91 % 0 mm
17:27 -14.1 °C -14.8 °C 34496.6 hPa Calm     91 % 0 mm
17:28 -14.1 °C -14.8 °C 34496.6 hPa Calm   7.6 km/h 91 % 0 mm
17:29 -14.1 °C -14.8 °C 34496.6 hPa Calm   7.6 km/h 91 % 0 mm
17:30 -14.1 °C -14.8 °C 34496.6 hPa NNW 0.3 km/h 7.6 km/h 91 % 0 mm
17:32 -14 °C -14.8 °C 34496.6 hPa NNW 0.5 km/h 7.6 km/h 91 % 0 mm
17:33 -14 °C -14.8 °C 34496.6 hPa NNE 0.5 km/h 7.6 km/h 91 % 0 mm
17:34 -14 °C -14.8 °C 34496.6 hPa NNE 1 km/h 7.6 km/h 91 % 0 mm
17:35 -14 °C -14.8 °C 34496.6 hPa NNE 1 km/h 7.6 km/h 91 % 0 mm
17:36 -14 °C -14.8 °C 34496.6 hPa NNE 1 km/h 7.6 km/h 91 % 0 mm
17:38 -14 °C -14.7 °C 34496.6 hPa ENE 1.6 km/h 9.3 km/h 92 % 0 mm
17:39 -14 °C -14.7 °C 34496.6 hPa ENE 1.8 km/h 9.3 km/h 92 % 0 mm
17:40 -14 °C -14.7 °C 34496.6 hPa ENE 2.1 km/h 9.3 km/h 92 % 0 mm
17:42 -14 °C -14.7 °C 34496.6 hPa ENE 1.8 km/h 9.3 km/h 92 % 0 mm
17:43 -13.9 °C -14.6 °C 34533.8 hPa ENE 1.8 km/h 9.3 km/h 92 % 0 mm
17:44 -13.9 °C -14.6 °C 34533.8 hPa East 1.8 km/h 9.3 km/h 92 % 0 mm
17:46 -13.9 °C -14.6 °C 34533.8 hPa ENE 1.6 km/h 9.3 km/h 92 % 0 mm
17:48 -13.9 °C -14.6 °C 34533.8 hPa East 1 km/h 6.4 km/h 92 % 0 mm
17:49 -13.9 °C -14.6 °C 34533.8 hPa East 0.3 km/h 5.1 km/h 92 % 0 mm
17:50 -13.9 °C -14.6 °C 34533.8 hPa East 0.3 km/h 5.1 km/h 92 % 0 mm
17:52 -13.9 °C -14.6 °C 34533.8 hPa Calm   4.2 km/h 92 % 0 mm
17:54 -13.9 °C -14.6 °C 34533.8 hPa Calm   4.2 km/h 92 % 0 mm
17:55 -13.9 °C -14.6 °C 34533.8 hPa Calm   4.2 km/h 92 % 0 mm
17:56 -13.9 °C -14.6 °C 34533.8 hPa Calm   4.2 km/h 92 % 0 mm
17:57 -13.9 °C -14.6 °C 34496.6 hPa Calm   4.2 km/h 92 % 0 mm
17:58 -13.9 °C -14.6 °C 34496.6 hPa Calm   4.2 km/h 92 % 0 mm
17:59 -13.9 °C -14.6 °C 34496.6 hPa Calm   5.1 km/h 92 % 0 mm
18:00 -13.9 °C -14.6 °C 34496.6 hPa NE 0.3 km/h 5.1 km/h 92 % 0 mm
18:01 -13.9 °C -14.6 °C 34496.6 hPa NE 0.5 km/h 5.1 km/h 92 % 0 mm
18:05 -13.8 °C -14.5 °C 34496.6 hPa North 0.8 km/h 5.6 km/h 92 % 0 mm
18:06 -13.8 °C -14.5 °C 34496.6 hPa WNW 1.8 km/h 11.1 km/h 92 % 0 mm
18:07 -13.8 °C -14.5 °C 34496.6 hPa WNW 2.3 km/h 11.1 km/h 92 % 0 mm
18:08 -13.8 °C -14.5 °C 34496.6 hPa WNW 3.7 km/h 14 km/h 92 % 0 mm
18:13 -13.8 °C -14.4 °C 34533.8 hPa West 8.5 km/h 16.3 km/h 92 % 0 mm
18:15 -13.7 °C -14.4 °C 34533.8 hPa West 9.3 km/h 16.3 km/h 92 % 0 mm
18:19 -13.7 °C -14.3 °C 34533.8 hPa WSW 9.3 km/h 16.3 km/h 92 % 0 mm
18:20 -13.7 °C -14.3 °C 34533.8 hPa WSW 9 km/h 16.3 km/h 92 % 0 mm
18:21 -13.7 °C -14.3 °C 34533.8 hPa SW 8.5 km/h 15 km/h 92 % 0 mm
18:22 -13.7 °C -14.3 °C 34533.8 hPa SW 8.5 km/h 15 km/h 92 % 0 mm
18:24 -13.6 °C -14.3 °C 34533.8 hPa SW 7.6 km/h 14.5 km/h 92 % 0 mm
18:26 -13.6 °C -14.2 °C 34533.8 hPa SW 7.2 km/h 14.5 km/h 93 % 0 mm
18:29 -13.6 °C -14.2 °C 34567.7 hPa SW 6.4 km/h 14.5 km/h 93 % 0 mm
18:34 -13.5 °C -14.1 °C 34567.7 hPa SW 6.3 km/h 11.1 km/h 93 % 0 mm
18:40 -13.5 °C -14.1 °C 34567.7 hPa SSW 3.7 km/h 11.1 km/h 93 % 7.62 mm
18:53 -13.5 °C -14.1 °C 34567.7 hPa South 2.3 km/h 6.4 km/h 93 % 12.7 mm
18:57 -13.6 °C -14.1 °C 34567.7 hPa South 1.8 km/h 5.1 km/h 93 % 12.7 mm
19:00 -13.6 °C -14.2 °C 34567.7 hPa SSW 0.8 km/h 4.2 km/h 93 % 12.7 mm
19:07 -13.6 °C -14.2 °C 34567.7 hPa Calm     93 % 25.4 mm
19:12 -13.7 °C -14.3 °C 34567.7 hPa Calm     93 % 25.4 mm
19:15 -13.7 °C -14.3 °C 34567.7 hPa Calm     93 % 25.4 mm
19:21 -13.7 °C -14.3 °C 34567.7 hPa SW 3.7 km/h 8.9 km/h 93 % 33.02 mm
19:22 -13.7 °C -14.3 °C 34567.7 hPa SW 3.9 km/h 8.9 km/h 93 % 33.02 mm
19:25 -13.7 °C -14.3 °C 34567.7 hPa SW 5.1 km/h 8.9 km/h 93 % 33.02 mm
19:27 -13.7 °C -14.3 °C 34567.7 hPa SW 5 km/h 8.9 km/h 93 % 33.02 mm
19:30 -13.7 °C -14.3 °C 34567.7 hPa SW 2.3 km/h 6.9 km/h 93 % 38.1 mm
19:32 -13.7 °C -14.3 °C 34567.7 hPa SW 1.6 km/h 5.6 km/h 93 % 38.1 mm
19:33 -13.7 °C -14.3 °C 34567.7 hPa SW 0.8 km/h 5.6 km/h 93 % 38.1 mm
19:34 -13.7 °C -14.3 °C 34567.7 hPa SW 0.3 km/h 2.9 km/h 93 % 38.1 mm
19:36 -13.7 °C -14.3 °C 34567.7 hPa Calm     93 % 38.1 mm
19:38 -13.7 °C -14.3 °C 34567.7 hPa Calm     93 % 38.1 mm
Vremenska postaja Senovo
Podatki zbrani iz Weather Underground - 5.5 mb

Script developed by  Jim McMurry - jmcmurry@mwt.net Adapted for the template by  Wim van der Kuil - Leuven-Template.eu

Vremenski podatki so objavljeni na:

European Weather Network

WeatherCloud

Weather Underground

AWEKAS

HAMweather, WeatherForYou, PWS Weather

MapView

Geostik

Slovenia weather network

Oprema, ki se uporablja:

Vremenski program
Cumulus

Vremenski server
Asus

Cumulus

Asus